Location: ????????
(48.4692°N, 34.0020°E)
Time: 12:42:48
(UTC+00:00)

Daily predictions for brighter satellites

Satellite Brightness Start Highest point End
(mag) Time Altitude Azimuth Time Altitude Azimuth Time Altitude Azimuth
Cosmos 2251 Rocket 3.5 17:37:58 10° SSW 17:43:13 77° ESE 17:48:32 10° NNE
Cosmos 1656 3.7 17:39:57 10° NNW 17:45:27 77° ENE 17:50:59 10° SSE
Cosmos 389 Rocket 2.8 17:42:55 10° N 17:46:15 46° ENE 17:49:35 10° SSE
Cosmos 1812 3.2 17:43:13 10° N 17:46:55 42° ENE 17:50:34 10° SSE
Cosmos 972 Rocket 4.0 17:44:32 10° NNW 17:49:36 86° WSW 17:54:29 10° SSE
IRIDIUM 104 4.5 17:46:31 10° SSE 17:51:36 55° E 17:56:42 10° NNE
Cosmos 1707 Rocket 4.2 17:50:12 10° N 17:54:16 37° ENE 17:58:16 10° SE
BREEZE-M (TANK) 4.1 17:50:44 10° WSW 17:54:53 81° SSE 18:12:41 10° ENE
Cosmos 220 Rocket 4.1 17:50:43 10° NNW 17:54:54 61° ENE 17:59:05 10° SE
Resurs 01 Rocket 1.8 17:51:08 10° SSE 17:55:29 60° ENE 17:59:52 10° N
Cosmos 1633 4.0 17:53:57 10° SSW 17:57:19 41° WNW 18:00:42 10° N
BREEZE M DEB (TANK) 4.3 17:53:09 10° WSW 17:57:49 87° SSE 18:18:44 10° E
Intercosmos 25 3.6 17:53:31 10° N 17:58:12 53° ENE 18:01:34 10° SSE
IRIDIUM 114 4.4 17:55:34 10° S 18:00:43 66° E 18:05:55 10° N
USA 267 3.4 17:54:27 10° ENE 18:00:50 52° SE 18:07:11 10° SSW
Cosmos 614 Rocket 4.2 17:57:25 10° S 18:02:22 50° ESE 18:07:23 10° NNE
Cosmos 1441 Rocket 3.4 17:59:52 10° S 18:03:32 49° E 18:07:12 10° NNE
Cosmos 1900 4.3 18:01:31 10° SSW 18:06:28 83° SE 18:11:32 10° NE
Cosmos 1821 Rocket 4.0 18:01:52 10° S 18:07:52 61° E 18:14:00 10° NNE
IGS 5A 4.2 18:04:39 11° SE 18:08:16 36° ENE 18:12:05 10° N
IRIDIUM 103 4.3 18:04:39 10° S 18:09:51 79° E 18:15:06 10° N
COSMOS 2406 3.2 18:06:45 10° SSW 18:12:28 70° ESE 18:18:11 10° NNE
GP-B 4.1 18:08:34 10° NNE 18:12:29 29° E 18:15:46 13° SE
SL-16 R/B 4.0 18:11:28 10° N 18:15:35 20° NE 18:19:39 10° E
CZ-2C R/B 3.8 18:13:03 10° NNE 18:17:43 86° WNW 18:22:16 10° SSW
Cosmos 921 Rocket 4.5 18:15:08 10° N 18:18:32 23° ENE 18:21:16 13° ESE
ERS-1 Rocket 4.0 18:16:08 13° ESE 18:19:54 31° ENE 18:24:19 10° N
Cosmos 1862 Rocket 4.4 18:16:39 10° N 18:20:47 35° ENE 18:23:51 16° SE
Cosmos 2369 3.8 18:15:23 10° NNW 18:21:10 75° ENE 18:26:08 14° SE
Lacrosse 5 3.1 18:16:51 10° NW 18:21:34 36° NNE 18:26:15 10° E
Shenzhou-11 Module 3.1 18:23:36 10° SW 18:25:22 19° S 18:25:46 18° S
Cosmos 1818 3.7 18:21:43 10° NW 18:27:12 76° SW 18:31:46 15° SSE
Sich 1 3.0 18:23:23 10° S 18:27:48 81° E 18:32:16 10° NNE
Cosmos 2082 Rocket 2.6 18:22:37 10° S 18:27:54 40° ESE 18:33:10 10° NE
Cosmos 2123 Rocket 4.1 18:21:45 10° N 18:27:54 60° ENE 18:33:23 13° SSE
Cosmos 1862 3.8 18:24:13 10° SSW 18:28:14 63° WNW 18:32:17 10° N
Meteor 2-20 4.5 18:24:08 10° N 18:30:19 71° ENE 18:36:00 12° SSE
Cosmos 2278 3.9 18:24:46 10° NNW 18:30:28 62° ENE 18:34:50 17° SE
Spot 2 Rocket 3.5 18:31:13 14° SSE 18:35:35 72° ENE 18:40:41 10° N
USA 234 3.3 18:31:25 15° ESE 18:37:03 85° NNE 18:43:38 10° NW
Cosmos 2239 Rocket 4.4 18:31:05 10° S 18:37:13 85° E 18:43:25 10° N
Cosmos 2322 Rocket 3.9 18:33:47 10° N 18:38:14 23° NE 18:42:37 10° E
Cosmos 1605 Rocket 4.4 18:36:30 14° SSE 18:41:21 43° E 18:47:04 10° NNE
CZ-2C R/B 4.1 18:37:17 10° N 18:42:03 38° WNW 18:46:49 10° SW
Cosmos 1190 Rocket 4.0 18:37:02 10° S 18:42:15 66° ESE 18:47:31 10° NNE
Terra 2.8 18:42:15 19° ESE 18:44:55 32° ENE 18:49:08 10° N
Cosmos 407 Rocket 3.5 18:39:56 10° SSW 18:45:15 83° ESE 18:50:35 10° NNE
CARTOSAT-1 4.0 18:42:57 21° SE 18:45:27 45° ENE 18:49:36 10° N
Meteor 1-4 Rocket 2.3 18:42:44 10° N 18:46:15 83° ENE 18:48:15 23° SSE
Meteor 1-27 Rocket 4.1 18:42:44 10° NNW 18:48:38 71° W 18:54:27 10° S
Cosmos 1933 Rocket 4.5 18:47:09 23° SE 18:48:53 30° E 18:52:46 10° NNE
Cosmos 1666 Rocket 3.5 18:44:55 10° S 18:49:14 89° E 18:53:35 10° N
Cosmos 1238 Rocket 3.2 18:49:11 27° E 18:49:25 27° E 18:51:59 10° NNE
Cosmos 1184 Rocket 3.1 18:48:07 28° SSE 18:49:25 44° E 18:52:36 10° NNE
MetOp-B 4.4 18:44:23 11° S 18:49:27 70° WSW 18:54:49 10° NNW
USA 238 DEB 4.1 18:44:49 10° S 18:50:48 38° ESE 18:57:00 10° NE
USA 238 4.1 18:44:57 10° S 18:50:55 37° ESE 18:57:06 10° NE
Cosmos 2360 Rocket 4.2 18:48:24 10° N 18:52:15 18° NE 18:56:05 10° E
Okean 1 4.2 18:50:34 10° N 18:54:17 34° ENE 18:55:47 25° ESE
SPOT 5 2.9 18:56:40 26° SE 18:58:51 53° ENE 19:03:05 10° N
Cosmos 1437 Rocket 4.0 18:55:46 10° NNE 18:59:01 26° ENE 19:00:03 22° E
Cosmos 1980 Rocket 2.2 18:56:04 10° NNW 19:01:48 90° WSW 19:05:19 24° SSE
SPOT 1/Viking Rocket 3.6 18:59:15 19° SSE 19:03:02 83° WSW 19:08:18 10° NNW
CZ-4B DEB 4.3 19:02:10 36° SSE 19:03:22 72° ENE 19:06:43 10° N
Cosmos 2242 Rocket 3.9 19:03:52 10° N 19:08:13 52° ENE 19:09:59 32° SE
Cosmos 1763 Rocket 4.2 19:03:24 10° NNW 19:08:29 43° ENE 19:11:07 25° ESE
Cosmos 1703 Rocket 4.2 19:04:23 10° N 19:08:29 38° ENE 19:09:56 29° ESE
ATLAS 5 CENTAUR R/B 3.9 19:05:40 10° WNW 19:10:33 27° WSW 19:15:44 11° S
Cosmos 1140 Rocket 3.6 19:05:53 10° SSW 19:11:07 78° WNW 19:16:25 10° NNE
SL-4 R/B 1.6 19:09:10 10° SW 19:13:02 64° SSE 19:15:57 15° ENE
Genesis I 3.2 19:10:40 10° NW 19:14:32 74° SW 19:15:51 39° SSE
Cosmos 405 Rocket 2.9 19:14:15 41° SE 19:14:58 48° E 19:18:34 10° NNE
USA 32 4.0 19:12:32 18° S 19:16:32 90° W 19:21:48 10° N
Cosmos 1697 Rocket 3.7 19:12:09 10° NW 19:17:21 39° WSW 19:21:20 16° S
Cosmos 1833 Rocket 3.3 19:13:12 10° SW 19:18:43 57° WNW 19:24:17 10° NNE
CENTAUR R/B 3.1 19:17:41 28° SSE 19:19:40 34° ESE 19:25:42 10° NE
Cosmos 1633 Rocket 3.8 19:18:20 10° SSW 19:22:39 51° WNW 19:26:59 10° N
Meteor 1-18 Rocket 4.2 19:19:01 10° N 19:24:40 75° ENE 19:27:20 32° SSE
Cosmos 1867 3.5 19:20:43 10° SSW 19:26:08 79° SE 19:31:38 10° NE
Cosmos 1447 Rocket 4.5 19:23:12 10° N 19:29:36 84° E 19:33:08 29° SSE
Okean 1-7 3.2 19:26:14 10° N 19:30:32 57° ENE 19:31:38 43° SE
Resurs 01 Rocket 4.1 19:29:33 10° SW 19:32:22 16° W 19:35:12 10° NW
Meteor 2-4 Rocket 4.0 19:29:08 10° N 19:34:43 52° ENE 19:36:49 34° SE
Cosmos 1850 Rocket 4.3 19:34:03 37° SSE 19:35:32 46° ESE 19:40:34 10° NNE
Cosmos 676 Rocket 4.3 19:34:27 10° SSW 19:39:46 71° WNW 19:45:08 10° NNE
Meteor 1-25 Rocket 4.3 19:35:38 18° SSW 19:39:51 76° WNW 19:45:30 10° N
FALCON 9 DEB 3.0 19:37:37 10° WSW 19:41:07 83° SSE 19:41:53 52° ENE
Cosmos 44 4.2 19:37:55 10° NNW 19:42:32 42° NE 19:44:45 27° E
Cosmos 1515 3.6 19:39:03 10° N 19:42:55 81° E 19:43:28 63° SSE
USA 267 3.6 19:37:30 10° NE 19:43:59 66° NNW 19:50:28 10° WSW
SL-27 R/B 4.2 19:46:06 20° ENE 19:46:06 20° ENE 19:47:29 10° NE
NOSS 3-2 (A) 3.3 19:39:34 10° SSW 19:45:16 78° SE 19:51:52 10° NE
Cosmos 1470 Rocket 4.2 19:42:24 20° SSW 19:45:18 52° WNW 19:49:37 10° N
SWARM C 4.4 19:46:13 10° N 19:49:30 84° NE 19:49:30 84° NE
SWARM A 4.1 19:46:18 10° N 19:49:39 85° W 19:49:39 85° W
NOSS 3-2 (C) 3.4 19:48:31 31° S 19:51:10 56° ESE 19:57:30 10° NE
Cosmos 921 Rocket 3.8 19:53:00 10° NNW 19:57:00 41° WSW 19:58:03 34° SW
ERS-1 Rocket 4.0 19:56:09 24° SSW 19:58:35 40° W 20:03:19 10° NNW
Cosmos 841 Rocket 3.7 19:55:18 10° NNW 20:00:29 60° ENE 20:01:56 43° ESE
SL-16 R/B 2.1 19:54:53 10° NNW 20:00:36 82° ENE 20:02:26 45° SE
Cosmos 540 Rocket 3.7 19:57:04 10° NNW 20:02:12 59° ENE 20:03:34 44° ESE
Cosmos 468 Rocket 4.2 19:58:45 10° NNW 20:04:03 65° WSW 20:05:37 43° S
Lacrosse 5 1.8 19:59:56 10° NW 20:05:02 88° NNE 20:06:22 51° ESE
Cosmos 1741 Rocket 3.9 20:08:05 43° SSW 20:09:51 83° ESE 20:15:10 10° NNE
Cosmos 1570 Rocket 4.0 20:06:07 10° NNW 20:11:28 75° ENE 20:12:46 51° SE
Cosmos 2219 Rocket 4.0 20:06:59 10° N 20:11:34 24° NE 20:14:57 15° E
Cosmos 2082 Rocket 3.5 20:06:39 10° WSW 20:11:59 40° NW 20:17:20 10° NNE
Cosmos 2208 Rocket 4.1 20:08:10 10° NNW 20:13:27 66° ENE 20:14:40 50° ESE
Cosmos 1814 Rocket 4.1 20:08:57 10° NNW 20:14:08 63° ENE 20:15:20 49° ESE
USA 234 4.1 20:18:46 30° SSW 20:20:31 34° SW 20:26:24 10° WNW
Cosmos 2084 Rocket 4.5 20:22:32 34° ENE 20:22:32 34° ENE 20:25:13 10° NE
Terra 3.0 20:21:08 29° SW 20:22:36 35° W 20:26:59 10° NNW
Cosmos 2322 Rocket 2.1 20:17:17 10° NNW 20:23:00 84° WSW 20:24:25 53° SSE
Cosmos 2100 Rocket 3.9 20:20:53 39° SSW 20:23:23 82° W 20:29:34 10° N
Meteor 1-11 Rocket 3.8 20:26:40 52° SE 20:27:39 60° E 20:33:18 10° NNE
EO 1 Del DPAF 4.4 20:27:24 10° NNE 20:29:58 33° ENE 20:29:58 33° ENE
ATLAS 3B R/B 2.9 20:34:00 43° SE 20:34:27 44° ESE 20:40:40 10° NE
Cosmos 1437 Rocket 4.3 20:31:59 10° NW 20:35:13 26° W 20:35:27 26° W
Cosmos 1869 Rocket 4.1 20:35:53 47° WSW 20:36:41 55° WNW 20:41:04 10° N
Cosmos 2360 Rocket 2.2 20:31:35 10° NNW 20:37:18 73° ENE 20:38:35 53° SE
COSMOS 2428 4.1 20:32:48 10° NNW 20:37:52 31° NE 20:40:38 21° E
Cosmos 1242 Rocket 3.6 20:35:20 10° N 20:38:07 40° NE 20:38:07 40° NE
Cosmos 2173 Rocket 4.1 20:36:35 37° SSW 20:39:06 68° W 20:45:14 10° N
Geosat 4.1 20:40:38 57° SSW 20:41:15 62° WSW 20:46:15 10° NW
USA 238 DEB 4.2 20:34:53 10° WSW 20:41:28 60° NW 20:48:23 10° NE
USA 238 4.1 20:35:00 10° WSW 20:41:35 60° NW 20:48:30 10° NE
Iridium 4 Rocket 3.6 20:41:58 47° WSW 20:42:32 50° W 20:46:40 10° N
Cosmos 1725 Rocket 3.9 20:42:40 52° S 20:44:18 78° E 20:50:38 10° NNE
Cosmos 1980 Rocket 4.3 20:41:46 10° WNW 20:44:58 15° W 20:47:05 13° WSW
CRYOSAT 2 4.2 20:42:05 10° N 20:46:59 85° W 20:47:31 71° SSW
SL-08 R/B 4.3 20:47:39 54° S 20:49:09 86° E 20:55:16 10° N
ALOS 2 2.8 20:50:20 62° ENE 20:50:20 62° ENE 20:54:41 10° N
Cosmos 1500 4.4 20:50:18 35° WNW 20:50:24 35° WNW 20:53:53 10° N
SL-4 R/B 3.0 20:49:02 10° W 20:51:34 36° WNW 20:51:34 36° WNW
BREEZE-M DEB (TANK) 3.8 20:49:13 10° WNW 20:53:26 87° SSW 21:10:40 10° ESE
MOS 1-B Rocket 3.9 20:48:46 10° NNE 20:54:29 71° WNW 20:56:12 45° SW
Cosmos 1674 Rocket 3.6 20:52:03 10° N 20:56:08 68° NE 20:56:08 68° NE
Cosmos 2016 Rocket 4.1 20:55:14 45° SSW 20:57:17 73° W 21:03:42 10° N
Cosmos 2333 Rocket 2.9 20:51:55 10° NNW 20:57:31 48° NE 20:59:20 36° E
Cosmos 2061 Rocket 4.1 20:56:26 46° SSW 20:58:22 72° W 21:04:35 10° N
Cosmos 1536 3.1 20:58:57 64° N 20:58:57 64° N 21:02:24 10° N
Meteor 1-13 Rocket 4.5 20:54:33 10° NNW 20:59:57 54° W 21:00:56 48° SW
Cosmos 2237 Rocket 4.2 20:57:12 10° N 21:01:33 22° NE 21:05:46 10° E
Cosmos 1666 3.4 21:02:40 50° NW 21:02:40 50° NW 21:05:46 10° N
Cosmos 1743 4.0 21:03:12 34° NE 21:03:12 34° NE 21:05:51 10° NNE
Cosmos 1271 Rocket 3.7 21:02:44 10° N 21:05:39 42° NE 21:05:39 42° NE
Lacrosse 4 Rocket 2.9 21:09:06 28° ENE 21:09:06 28° ENE 21:11:26 10° NE
Cosmos 2221 Rocket 4.4 21:04:46 10° NNW 21:08:59 42° W 21:09:01 42° W
CENTAUR R/B 3.0 21:04:45 15° WSW 21:09:52 62° NW 21:17:08 10° NE
Cosmos 1066 Rocket 4.1 21:05:19 10° NNW 21:11:04 75° W 21:11:52 64° SSW
Meteor 1-23 Rocket 4.2 21:06:41 10° NNW 21:12:32 77° W 21:13:27 63° SSW
Cosmos 1733 Rocket 3.2 21:13:55 67° WNW 21:13:55 67° WNW 21:18:10 10° N
Thor Agena Rocket 3.8 21:10:29 10° N 21:15:30 62° WNW 21:16:25 53° WSW
Cosmos 44 Rocket 4.4 21:12:27 10° NNW 21:17:09 41° NE 21:18:51 31° E
Cosmos 968 Rocket 3.9 21:19:01 48° E 21:19:01 48° E 21:23:36 10° NNE
Cosmos 44 4.3 21:19:13 10° NW 21:23:09 36° W 21:23:09 36° W
ATLAS 5 CENTAUR R/B 3.1 21:20:48 10° WNW 21:23:25 43° WSW 21:23:25 43° WSW
Cosmos 1975 4.2 21:26:37 32° ENE 21:26:37 32° ENE 21:29:25 10° NNE
USA 267 4.4 21:20:23 10° ENE 21:26:28 43° N 21:32:34 10° WNW
SL-24 DEB 4.4 21:22:11 10° N 21:26:50 66° E 21:26:50 66° E
Cosmos 2233 Rocket 4.0 21:29:56 54° SSW 21:31:24 75° W 21:37:46 10° N
Cosmos 1464 Rocket 4.4 21:30:54 43° ESE 21:31:58 47° E 21:37:52 10° NNE
Cosmos 1782 Rocket 4.4 21:33:28 40° ENE 21:33:28 40° ENE 21:36:57 10° NNE
BREEZE-M DEB (TANK) 3.8 21:25:45 10° W 21:35:19 61° SW 21:35:19 61° SW
Cosmos 1378 4.4 21:35:18 10° NNW 21:37:53 37° NW 21:37:53 37° NW
Cosmos 1908 Rocket 3.7 21:41:24 71° N 21:41:24 71° N 21:45:19 10° N
Cosmos 2227 Rocket 4.3 21:40:53 13° E 21:41:08 13° E 21:43:43 10° ENE
Meteor 1-21 4.5 21:36:13 10° N 21:42:00 62° ENE 21:43:02 53° ESE
Cosmos 1842 4.0 21:39:17 10° N 21:42:24 50° NNE 21:42:24 50° NNE
SL-16 R/B 4.0 21:40:21 10° WNW 21:43:58 18° W 21:44:17 17° WSW
Helios 1B rocket 4.1 21:42:51 10° NE 21:45:30 24° ENE 21:45:30 24° ENE
Cosmos 2322 3.7 21:41:44 10° NNW 21:47:21 64° WSW 21:47:36 63° SW
Lacrosse 5 3.8 21:43:38 10° WNW 21:45:31 18° W 21:45:31 18° W
Cosmos 1833 4.4 21:46:47 52° WSW 21:48:00 66° WNW 21:53:41 10° NNE
Nadezhda 4 Rocket 4.4 21:45:38 10° N 21:51:49 54° ENE 21:53:31 42° ESE
Cosmos 1378 Rocket 4.5 21:48:03 10° NNW 21:51:46 39° WNW 21:51:46 39° WNW
Cosmos 2219 Rocket 2.0 21:50:28 10° NNW 21:56:10 78° WSW 21:56:38 72° SSW
COSMOS 2487 4.2 21:58:46 30° NNW 21:58:46 30° NNW 22:01:05 10° N
Cosmos 2034 Rocket 4.3 21:59:08 47° SE 22:00:21 55° E 22:06:30 10° NNE
Meteor 1-24 4.5 21:55:17 10° NNW 22:00:53 89° ENE 22:01:28 73° SSE
Cosmos 783 Rocket 4.5 21:56:19 10° NNW 22:01:35 75° ENE 22:02:08 68° ESE
Cosmos 1072 Rocket 4.3 22:02:07 64° S 22:03:09 84° E 22:09:17 10° N
SL-16 R/B 4.0 22:01:10 15° ESE 22:05:25 31° ENE 22:10:46 10° N
Cosmos 1975 Rocket 3.2 22:01:10 10° N 22:05:17 73° NNW 22:05:17 73° NNW
Cosmos 1503 Rocket 3.9 22:05:35 77° SSE 22:05:54 82° ESE 22:11:19 10° NNE
Cosmos 2322 Rocket 4.2 22:03:15 10° WNW 22:06:10 14° W 22:06:13 14° W
Okean 2 Rocket 4.0 22:08:00 40° E 22:08:00 40° E 22:11:58 10° NNE
Cosmos 1891 Rocket 4.5 22:08:25 59° S 22:09:46 90° E 22:16:16 10° N
YAOGAN 11 4.5 22:10:49 59° WNW 22:10:49 59° WNW 22:14:59 10° NNW
SL-16 R/B 4.1 22:07:02 10° NNW 22:11:49 27° NE 22:16:34 10° ESE
CZ-2D R/B 4.0 22:08:22 10° NE 22:12:11 19° E 22:13:36 17° ESE
Helios 1A 3.9 22:13:11 41° WNW 22:13:11 41° WNW 22:16:27 10° NNW
Cosmos 1486 Rocket 4.4 22:11:53 49° W 22:12:41 54° WNW 22:17:49 10° NNE
Cosmos 1300 Rocket 4.3 22:15:24 42° ENE 22:15:24 42° ENE 22:19:09 10° NNE
Landsat 4 4.5 22:11:19 10° NNE 22:14:13 51° NNE 22:14:13 51° NNE
Sich 1 Rocket 3.7 22:18:02 71° NE 22:18:02 71° NE 22:22:04 10° NNE
ERBS 4.3 22:16:14 10° NW 22:18:11 26° NNW 22:18:11 26° NNW
Cosmos 2360 Rocket 3.8 22:16:39 10° NW 22:20:19 20° W 22:20:19 20° W
COSMOS 2428 2.8 22:16:52 10° NW 22:22:28 56° WSW 22:22:37 56° WSW
ATLAS 3B R/B 3.2 22:21:13 24° WSW 22:25:04 51° NW 22:31:36 10° NE
PSLV R/B 3.7 22:21:31 10° NNE 22:26:11 83° WNW 22:26:13 83° W
Meteor 2-9 Rocket 4.3 22:31:37 56° WSW 22:32:27 64° WNW 22:38:08 10° N
Cosmos 2297 Rocket 2.8 22:34:19 39° SE 22:34:58 40° ESE 22:40:13 10° NE
Cosmos 1980 3.6 22:31:06 10° NNW 22:36:50 86° ENE 22:38:04 57° SSE
Cosmos 2219 3.5 22:37:35 47° SE 22:38:14 49° ESE 22:43:37 10° NE
Cosmos 2151 Rocket 3.8 22:39:14 59° E 22:39:14 59° E 22:43:30 10° NNE
SJ 16-02 3.5 22:41:00 16° ESE 22:41:28 16° E 22:44:13 10° ENE
Cosmos 2333 Rocket 3.1 22:36:31 10° NW 22:41:19 33° W 22:41:19 33° W
Cosmos 1538 Rocket 4.0 22:37:37 10° NNW 22:42:48 73° ENE 22:43:52 55° SE
Timation 2 Rocket 3.8 22:43:45 58° S 22:45:01 79° ESE 22:51:05 10° NNE
Lacrosse 4 Rocket 2.9 22:45:23 27° WNW 22:46:15 29° NW 22:49:57 10° NNE
NOSS 0 Rocket 3.9 22:40:06 10° NW 22:46:16 63° WSW 22:47:14 56° SSW
Cosmos 2237 Rocket 2.1 22:40:42 10° NNW 22:46:23 87° WSW 22:47:32 59° SSE
Cosmos 773 Rocket 3.8 22:43:08 10° NNW 22:48:15 68° WSW 22:48:25 67° WSW
Cosmos 1025 Rocket 3.0 22:44:22 10° NNW 22:48:18 72° NW 22:48:18 72° NW
Cosmos 2195 Rocket 4.5 22:46:42 10° N 22:53:03 82° E 22:55:07 46° SSE
FALCON 9 DEB 4.3 22:56:27 41° NE 22:56:27 41° NE 22:59:14 10° E
Cosmos 44 Rocket 4.3 22:54:04 10° NW 22:57:31 34° W 22:57:31 34° W
Spot 1 3.9 23:00:25 78° E 23:00:29 78° ENE 23:04:35 10° NNW
In-Cosmos 22 4.1 22:54:53 10° NNW 23:00:30 76° W 23:01:27 60° SSW
Cosmos 2026 Rocket 3.9 23:00:34 10° N 23:06:41 88° E 23:08:44 45° S
Resurs 1-4 Rocket 2.6 23:01:49 10° NNE 23:06:58 50° E 23:08:21 40° SE
Cosmos 1536 Rocket 3.6 23:03:54 10° NNW 23:07:59 62° WNW 23:07:59 62° WNW
USA 267 4.1 23:02:34 10° E 23:08:48 49° NNE 23:15:03 10° WNW
Cosmos 1627 Rocket 4.4 23:07:02 10° N 23:13:13 80° W 23:15:11 46° S
Cosmos 1634 Rocket 3.9 23:12:14 46° S 23:14:14 86° E 23:20:30 10° N
Cosmos 1707 4.3 23:13:43 10° NNW 23:16:13 26° WNW 23:16:13 26° WNW
CZ-4C R/B 3.3 23:19:58 67° NE 23:19:58 67° NE 23:23:19 10° N
Helios 1B rocket 3.5 23:17:57 10° N 23:21:37 32° WNW 23:21:48 32° WNW
Cosmos 2344 4.4 23:14:36 10° NW 23:24:06 71° SW 23:37:21 10° SSE
Cosmos 2227 Rocket 2.1 23:22:42 50° SSW 23:24:14 80° ESE 23:29:56 10° NNE
Cosmos 1680 Rocket 3.9 23:20:04 10° NNW 23:25:16 59° ENE 23:28:50 20° SE
Cosmos 1805 3.2 23:27:20 73° ESE 23:27:28 74° E 23:31:22 10° NNE
Cosmos 1674 2.8 23:25:26 10° NNW 23:28:43 60° NW 23:28:43 60° NW
Cosmos 1607 4.0 23:23:50 10° NW 23:30:20 89° ENE 23:36:49 10° SE
Meteor 1-15 Rocket 4.1 23:30:31 47° SSW 23:32:14 82° WNW 23:37:52 10° N
SL-14 R/B 3.9 23:30:03 10° N 23:33:53 50° ENE 23:35:00 37° SE
Cosmos 1777 Rocket 4.4 23:35:45 40° WSW 23:37:15 52° WNW 23:42:27 10° NNE
Cosmos 1733 3.3 23:37:11 62° SE 23:37:32 67° E 23:41:22 10° NNE
Cosmos 2219 Rocket 4.2 23:36:42 10° WNW 23:38:19 13° W 23:38:19 13° W
MOZ.5/SAFIR/RUBIN 5/SL-8 4.1 23:39:37 45° WSW 23:40:00 46° W 23:44:35 10° NNW
CZ-4B R/B 3.9 23:36:30 10° NNE 23:41:09 50° E 23:42:55 33° SSE
IRS-1D 4.2 23:37:24 10° NNE 23:42:17 47° E 23:44:39 28° SSE
Cosmos 2082 3.8 23:44:06 40° S 23:46:09 70° ESE 23:51:46 10° NNE
SL-16 R/B 2.6 23:46:15 36° SSW 23:48:42 58° WSW 23:54:53 10° NNW
Cosmos 158 Rocket 4.0 23:43:35 10° NNW 23:48:59 90° WSW 23:52:22 24° SSE
ADEOS II 2.7 23:45:37 10° NNE 23:50:44 49° E 23:53:32 25° SSE
GEOS 3 Rocket 3.9 23:45:29 10° NE 23:50:51 64° NW 23:53:18 32° WSW
CZ-2D R/B 2.2 23:47:17 10° NNE 23:52:48 74° WNW 23:54:54 39° SSW
